Sugarloaf Regional (B21)
Carrabassett, ME
Field Elevation: 885
Lat: 45°05.12N  Long: 70°12.98W
CTAF/Unicom Freq: 122.8000
   
    
Weather Advisories
11/25/2014 01:19 Z
Altimeter 29.48" Hg
Wind 180° @ 6 KT
Gusts --
Visibility 10 SM
Temperature 13° C (55° F)
Dewpoint 12° C (54° F)
Relative Humidity 95%
Density Altitude --
Condensation Altitude 1,200 feet
  Wind and Runways
Indicated Runway = 17
History
 
 
More Info
All DigiWx sites map
 
NOAA Forecast
 
Airport IQ 5010
(39N) Princeton, NJ
(PN44) Upper Gwynedd Heliport
 
about DigiWx
 
FAA Disclaimer: The data displayed is for advisory purposes only and is not to be used for flight planning or operations. For official data, please call (not available) to hear the current automated AWOS voice message.
  METAR B21 250119Z AUTO 18006KT 10SM 13/12 A2948